Погода Кемь-Порт

Погода Кемь-Порт : погода сейчас, прогноз погоды и архив. Всё, что Вы хотите узнать о погоде Кемь-Порт!

Поиск расширенной информации на нашем сайте:

Другие новости

Новости СМИ2

Главная страница сайта

Новости сайта

03.07.2017

Напоминаем, что на нашем специализированном сайте Метеоцентр.Азия вы можете получить высокодетализированные автоматические прогнозы погоды по пунктам России, СНГ и мира в авиационном формате (включающие направление и скорость ветра, видимость, явления погоды, количество и форму облачности, нижнюю и верхнюю границу облачности).


Погода Кемь-Порт - сегодня

Время (UTC), дата Ветер
(°,м/с) 
Видим.   Явления Облачность Т
(°С)
Тd
(°С)
f(%) Тe
(°С)
Pmin
(гПа)
dP
(гПа)
Po
(мм)
O2
(г/м3)
Тmin Tmax R s Состояние
почвы
12 14.09.18 230 (ЮЗ) 3{10}  20000 м    6/6 600 м 
[Cu Sc]
+13.2 +7.9 70 +13  1008.7  756  289           
15 14.09.18 230 (ЮЗ) 20000 м    9/1 600 м верхняя 
[Cu Sc|Cs]
+13.4 +6.2 62 +14  1008.8  756  289           
21 14.09.18 200 (Ю) 20000 м    3/0 верхняя 
[Ci fib]
+10 +7 82 +10  1008.4  -0.3  756  293           
00 15.09.18 200 (Ю) 20000 м    ясно 
+9.3 +7.1 86 +9  1008.4  756  293           
03 15.09.18 230 (ЮЗ) 10 км  слаб. ливневой дождь  10/10 500 м кучево-дожд. 
[Cb cap]
+9.1 +8 93 +9  1008.6  0.2  756  293  +9.1       
06 15.09.18 250 (З) 20000 м  {ливн. осадки}  8/8 630 м 
[Sc]
+10.6 +9.1 90 +10  1009.3  0.7  756  292  +9.1      влажная 
09 15.09.18 250 (З) 20000 м    9/9 600 м 
[Sc]
+11.5 +7.6 77 +11  1011.1  1.8  758  292           
12 15.09.18 180 (Ю) 20000 м    4/3 600 м верхняя 
[Sc|Ci fib]
+13.8 +7.6 66 +14  1011  758  289           
15 15.09.18 140 (ЮВ) 5{10}  20000 м    9/0 средняя 
[Ac As]
+12.3 +9.4 82 +11  1010.1  -1  757  290      0.0     
21 15.09.18 170 (Ю) 10 км  слаб. дождь  10/0 средняя 
[As op]
+12.2 +10.7 91 +14  1007.5  -1.5  755  289           
00 16.09.18 180 (Ю) 20000 м  {дождь}  10/0 средняя 
[Ac As]
+12.3 +10 86 +13  1006  -1.5  754  289           
09 16.09.18 230 (ЮЗ) 20000 м  {дождь}  10/10 800 м 
[Sc]
+12.1 +9.7 85 +13  1005  0.2  753  289           
12 16.09.18 240 (ЮЗ) 20000 м  {дождь}  6/6 600 м 
[Sc]
+13.1 +5.9 62 +13  1004.6  -0.4  753  289           
15 16.09.18 210 (ЮЗ) 20000 м    8/3 600 м верхняя 
[Cu Sc|Ci]
+12.4 +6.6 68 +13  1004.4  -0.2  753  289         
21 16.09.18 250 (З) 20000 м    10/0 средняя 
[Ac As]
+6.8 +4.4 85 +6  1004.4  -0.4  753  295           
00 17.09.18 230 (ЮЗ) 20000 м    ясно 
+5.5 +4.1 91 +5  1003.1  -1.3  752  296           
06 17.09.18 250 (З) 20000 м    1/0 
[]
+8.2 +5.8 85 +7  1002.1  -0.5  751  293  +5         
09 17.09.18 240 (ЮЗ) 5-11{11}  20000 м    8/8 630 м 
[Cu Sc]
+10.2 +5.7 74 +9  1001.9  0.1  751  291           
15 17.09.18 250 (З) 3{11}  20000 м    3/3 600 м 
[Sc diur, vesp]
+11.6 +4.1 60 +11  1001.2  -0.3  750  289           
21 17.09.18 240 (ЮЗ) 20000 м    3/3 600 м 
[Sc]
+5.3 +4.2 93 +6  1000  -0.7  749  296           
00 18.09.18 270 (З) 20000 м    4/4 600 м 
[Sc]
+5.4 +4.5 94 +4  999.5  -0.5  749  295           
03 18.09.18 280 (З) 20000 м    8/8 600 м 
[Sc]
+5 +3.8 92 +4  999.8  0.3  749  296  +4.6         
09 18.09.18 270 (З) 20000 м    9/9 600 м 
[Cu Sc]
+10.1 +6.2 77 +9  1001.6  0.8  751  291           
12 18.09.18 260 (З) 20000 м    6/6 600 м 
[Cu Sc]
+11.7 +6 68 +11  1002.2  0.7  751  289           
15 18.09.18 260 (З) 5{10}  20000 м    3/3 600 м 
[Cu Sc]
+12 +5 62 +11  1002.9  0.7  752  289           
Время (UTC), дата Ветер
(°,м/с) 
Видим.   Явления Облачность Т
(°С)
Тd
(°С)
f(%) Тe
(°С)
Pmin
(гПа)
dP
(гПа)
Po
(мм)
O2
(г/м3)
Тmin Tmax R s Состояние
почвы

Для получения пояснительной информации подведите курсор к названию столбца.

ПОГОДА Кемь-Порт - архив

Всё, что Вы хотите узнать о погоде Кемь-Порт - удобно и подробно!

Выберите нужную дату (начиная с 1 января 2015* года) и нажмите кнопку "Найти".
Будут отображены архивные сводки погоды по пункту Кемь-Порт, начиная с указанной даты.


Отображать данные в формате CSV (для использования в таблицах Excel)


Внимание! Наш архив погоды предназначен исключительно для личного некоммерческого использования в познавательных целях. Если Вам необходимы официальные справки о состоянии погоды (для производственных, юридических, коммерческих и т.п. целей), обращайтесь в органы Росгидромета.

*Примечание: данная дата относится к архиву по метеостанциям СССР (Россия, СНГ, Балтия).
Архив по метеостанциям Зарубежной Европы и Азии (кроме Китая) хранится 10 дней, по другим регионам земного шара (Китай, Африка, Америка, Австралия, Океания) - 1 день.

Кемь-Порт - район местоположения метеостанции


Название, широта, долгота, высота метеостанции:
Кемь-Порт 64.98°ш. 34.80°д. 8 м над ур. моря [Российская Федерация]

Дополнительная информация

В oтличие oт бoльшинства пoгoдных сайтoв мы публикуем пoдрoбную метеoинфoрмацию в детальнoм прoфессиoнальнoм фoрмате.

Характеристики температуры и влажнoсти вoздуха измеряются на высoте 2 м в тени вдали oт зданий и деревьев.
Скoрoсть ветра измеряется на высoте 10 м (на урoвне рoста челoвека скoрoсть ветра ниже в 1.5-2 раза). Если метеoстанция нахoдится в гoрoде или в лесу, тo скoрoсть ветра занижена на 2-4 м/с пo сравнению с oткрытым местoм. Скoрoсть ветра над акватoриями крупных рек и oзёр, а также на вершинах хoлмoв на 2-5 м/с выше, чем в oбычных услoвиях.
Атмoсфернoе давление в разных тoчках местнoсти мoжет значительнo oтличаться oт давления на метеoстанции, в зависимoсти oт услoвий рельефа (при пoдъёме на 10 м давление пoнижается примернo на 1 мм рт.ст.).